Weather History for Point Lay, AK

Change the Weather History Date:

Monday, May 27, 2013

  Actual Average Record
Temperature  
Mean Temperature 32 °F -  
Max Temperature 37 °F 35 °F 52 °F (2006)
Min Temperature 28 °F 27 °F 24 °F (2012)
Degree Days  
Heating Degree Days 32    
Moisture  
Dew Point 30 °F    
Average Humidity 94    
Maximum Humidity 100    
Minimum Humidity 86    
Precipitation  
Precipitation 0.00 in - - ()
Sea Level Pressure  
Sea Level Pressure 30.02 in    
Wind  
Wind Speed 14 mph (NE)    
Max Wind Speed 21 mph    
Max Gust Speed -    
Visibility 5 miles    
Events Fog , Rain    
Averages and records for this station are not official NWS values.
T = Trace of Precipitation, MM = Missing Value Source: NWS Daily Summary

Daily Weather History Graph

Daily Weather History Graph

Search for Another Location

Airport:

Trip Planner

Search our weather history database for the weather conditions in past years. The results will help you decide how hot, cold, wet, or windy it might be!

Date:

Astronomy

Dec. 31, 1969 Rise Set
Actual Time Sun does not rise Sun does not rise
Civil Twilight Sun does not rise Sun does not rise
Nautical Twilight Sun does not rise Sun does not rise
Astronomical Twilight Sun does not rise Sun does not rise
Moon 3:50 AM AKDT (5/27) 6:43 AM AKDT (5/27)
Length of Visible Light 24h 00m
Length of Day
24h 00m
Waning Gibbous, 90% of the Moon is Illuminated
May 27
Waning Gibbous
May 31
Last Quarter
Jun 8
New
Jun 16
First Quarter
Jun 23
Full

Hourly Weather History & Observations

Time (AKDT) Temp. Windchill Dew Point Humidity Pressure Visibility Wind Dir Wind Speed Gust Speed Precip Events Conditions
12:56 AM 28.4 °F 17.5 °F 28.4 °F 100% 30.05 in 0.2 mi NE 13.8 mph - N/A Fog Light Freezing Fog
1:56 AM 29.1 °F 18.9 °F 28.0 °F 96% 30.07 in 0.2 mi ENE 12.7 mph - N/A Fog Light Freezing Fog
2:27 AM 28.4 °F 18.0 °F 28.4 °F 100% 30.06 in 0.2 mi NE 12.7 mph - N/A Fog Light Freezing Fog
2:42 AM 28.4 °F 17.5 °F 28.4 °F 100% 30.06 in 0.2 mi ENE 13.8 mph - N/A Fog Light Freezing Fog
2:56 AM 29.1 °F 19.4 °F 28.0 °F 96% 30.08 in 0.2 mi NE 11.5 mph - N/A Fog Light Freezing Fog
3:12 AM 28.4 °F 18.0 °F 28.4 °F 100% 30.06 in 0.2 mi ENE 12.7 mph - N/A Fog Light Freezing Fog
3:24 AM 28.4 °F 17.5 °F 28.4 °F 100% 30.06 in 0.2 mi ENE 13.8 mph - N/A Fog Light Freezing Fog
3:31 AM 28.4 °F 17.5 °F 28.4 °F 100% 30.06 in 0.2 mi NE 13.8 mph - N/A Fog Light Freezing Fog
3:45 AM 28.4 °F 17.5 °F 28.4 °F 100% 30.05 in 0.2 mi NE 13.8 mph - N/A Fog Light Freezing Fog
3:56 AM 28.4 °F 17.5 °F 28.4 °F 100% 30.05 in 0.2 mi ENE 13.8 mph - N/A Fog Light Freezing Fog
4:10 AM 28.4 °F 18.0 °F 28.4 °F 100% 30.05 in 0.2 mi NE 12.7 mph - N/A Fog Light Freezing Fog
4:38 AM 28.4 °F 18.5 °F 28.4 °F 100% 30.05 in 0.2 mi ENE 11.5 mph - N/A Fog Light Freezing Fog
4:56 AM 29.1 °F 17.9 °F 28.0 °F 96% 30.05 in 0.2 mi NE 15.0 mph - N/A Fog Light Freezing Fog
5:56 AM 29.1 °F 18.9 °F 28.0 °F 96% 30.05 in 0.2 mi NE 12.7 mph - N/A Fog Light Freezing Fog
6:32 AM 28.4 °F 17.0 °F 28.4 °F 100% 30.04 in 0.5 mi NE 15.0 mph - N/A Fog Light Freezing Fog
6:38 AM 30.2 °F 20.2 °F 28.4 °F 93% 30.04 in 1.0 mi NE 12.7 mph - N/A   Overcast
6:56 AM 30.0 °F 20.5 °F 28.0 °F 92% 30.05 in 1.0 mi ENE 11.5 mph - N/A   Overcast
7:03 AM 30.2 °F 19.3 °F 28.4 °F 93% 30.04 in 1.5 mi ENE 15.0 mph - N/A   Overcast
7:21 AM 30.2 °F 20.8 °F 28.4 °F 93% 30.04 in 1.2 mi NE 11.5 mph - N/A   Overcast
7:26 AM 30.2 °F 20.2 °F 28.4 °F 93% 30.04 in 2.0 mi NE 12.7 mph - N/A   Overcast
7:34 AM 30.2 °F 20.8 °F 28.4 °F 93% 30.04 in 1.2 mi NE 11.5 mph - N/A   Overcast
7:44 AM 30.2 °F 20.8 °F 28.4 °F 93% 30.04 in 2.0 mi NE 11.5 mph - N/A   Overcast
7:56 AM 30.0 °F 19.5 °F 29.1 °F 96% 30.05 in 7.0 mi NE 13.8 mph - N/A   Overcast
8:24 AM 30.2 °F 19.3 °F 30.2 °F 100% 30.02 in 10.0 mi NE 15.0 mph - N/A   Overcast
8:56 AM 31.1 °F 20.1 °F 30.0 °F 96% 30.04 in 7.0 mi NE 16.1 mph - N/A   Overcast
9:20 AM 30.2 °F 17.4 °F 30.2 °F 100% 30.01 in 2.5 mi NE 20.7 mph - N/A   Overcast
9:30 AM 30.2 °F 18.9 °F 30.2 °F 100% 30.01 in 1.5 mi NE 16.1 mph - N/A   Overcast
9:40 AM 30.2 °F 17.8 °F 30.2 °F 100% 30.01 in 3.0 mi NE 19.6 mph - N/A   Overcast
9:56 AM 31.1 °F 20.1 °F 30.0 °F 96% 30.02 in 4.0 mi ENE 16.1 mph - N/A   Overcast
10:56 AM 32.0 °F 20.8 °F 31.1 °F 96% 30.02 in 10.0 mi ENE 17.3 mph - N/A   Overcast
11:07 AM 32.0 °F 20.5 °F 30.2 °F 93% 30.01 in 10.0 mi ENE 18.4 mph - N/A   Overcast
11:56 AM 32.9 °F 21.6 °F 31.1 °F 93% 30.01 in 10.0 mi ENE 18.4 mph - N/A   Overcast
12:56 PM 33.8 °F 22.8 °F 32.0 °F 93% 29.98 in 10.0 mi NE 18.4 mph - N/A   Mostly Cloudy
1:10 PM 33.8 °F 23.2 °F 32.0 °F 93% 29.98 in 10.0 mi NE 17.3 mph - 0.00 in   Scattered Clouds
1:56 PM 34.9 °F 26.2 °F 32.0 °F 89% 30.01 in 10.0 mi NE 12.7 mph - 0.00 in   Partly Cloudy
2:56 PM 36.0 °F 26.7 °F 32.0 °F 86% 30.01 in 10.0 mi ENE 15.0 mph - N/A   Mostly Cloudy
3:56 PM 35.6 °F 26.6 °F 32.0 °F 87% 29.98 in 10.0 mi ENE 13.8 mph - N/A   Mostly Cloudy
4:56 PM 36.9 °F 27.5 °F 32.9 °F 86% 29.97 in 10.0 mi ENE 16.1 mph - 0.00 in   Scattered Clouds
5:56 PM 37.9 °F 29.6 °F 34.0 °F 86% 29.97 in 10.0 mi NE 13.8 mph - N/A   Mostly Cloudy
6:56 PM 37.4 °F 28.9 °F 33.8 °F 87% 29.96 in 10.0 mi NE 13.8 mph - N/A Rain Light Rain
7:56 PM 36.9 °F 28.2 °F 34.0 °F 89% 29.97 in 7.0 mi NE 13.8 mph - 0.00 in Rain Light Rain
8:56 PM 36.9 °F 27.1 °F 34.0 °F 89% 29.94 in 10.0 mi NE 17.3 mph - 0.00 in   Scattered Clouds
9:56 PM 36.9 °F 26.2 °F 32.9 °F 86% 29.94 in 10.0 mi ENE 20.7 mph - N/A   Scattered Clouds
10:56 PM 36.0 °F 26.7 °F 32.0 °F 86% 29.94 in 10.0 mi ENE 15.0 mph - N/A   Partly Cloudy
11:56 PM 34.9 °F 27.7 °F 32.0 °F 89% 29.95 in 10.0 mi ENE 9.2 mph - N/A   Scattered Clouds